Vertical_Velocity
-2 1 0 -2 -4 -3 -0 -3 0 -3 -3 1 1 0 -0 1 -2 -0 1 1 -3 -3 -3 -2 -3 -0 3 -5 13 -4 4 9 -1 -5 -4 0 -1 2 -5 8 -1 -3 3 10 0 -10 -1
-3 -1 -0 -3 -4 -3 -2 -2 -3 0 -0 -1 -2 -1 -0 1 1 4 4 -1 0 -1 0 9 5 2 1 4 5 -2 3 5 7 5 -2 -1 6 9 12 2 -6 8 11 11 -21 1 2
-0 0 0 -3 -3 -2 -2 -1 -3 -2 1 0 -3 -3 -1 -2 1 1 1 -2 -0 0 1 0 0 0 3 13 4 4 11 -2 -1 4 -1 8 6 -10 5 1 8 -4 -6 6 -21 8 4
-1 0 -2 -2 -4 -3 -2 -3 -2 -2 -3 -5 -2 -4 -3 -6 -2 2 3 -5 -1 -0 -1 -1 4 -2 7 -2 -2 5 8 -0 3 0 6 2 7 3 2 -5 5 -3 -2 -1 1 4 -1
0 -2 -1 -2 -4 -1 1 -4 -2 1 -3 -3 -4 -6 -5 -2 -2 -0 -2 -3 -1 1 -0 -2 -1 -0 -1 -2 -0 2 -1 9 -1 5 2 6 -4 1 -1 -2 2 -5 -3 -6 -1 3 -0
-0 -1 0 -2 -5 -1 -1 -3 -4 -3 -4 -3 -4 -7 -9 -5 -2 -1 -1 -1 -2 -2 -1 -0 3 2 -6 -5 -5 -2 1 -0 2 2 5 -2 -4 3 -1 -3 -23 -15 -16 -9 0 -1 6
-3 1 -1 -1 -2 -2 -1 -2 0 -3 -6 -2 -6 -5 -10 -6 -6 -0 2 0 0 -1 1 -1 -1 -3 3 -4 2 11 -2 -6 4 -3 54 -2 -4 -37 0 9 19 18 16 11 18 2 -7
-2 -1 -1 1 -5 -2 0 -2 -1 -2 -0 -1 -5 -4 -12 -4 -9 -6 -2 -3 -4 -4 -3 -1 1 -3 -1 -1 1 10 30 26 -8 -4 -4 -8 -14 4 2 2 6 -4 -7 4 4 -14 -3
-3 1 -1 -1 -2 -5 2 -1 2 0 -2 -2 -2 -6 -4 -6 -9 -9 6 -3 -4 -6 -1 2 -2 -1 -4 -4 8 13 21 1 63 15 10 7 0 2 -6 -3 -2 -9 -1 15 -12 -2 7
-0 -1 -0 1 -1 -4 -0 -0 0 0 -2 -1 -3 -7 -3 -4 -0 -11 -2 -2 -3 -4 -10 -1 -8 8 2 -15 11 10 -1 3 34 4 -1 7 10 -5 -4 -1 1 -1 -2 8 -10 3 6
-1 -0 5 2 0 -1 -4 2 -1 1 1 -2 4 -3 -10 -1 2 -4 -6 -0 2 -0 -3 0 -4 6 21 20 -10 1 -7 -4 10 -3 1 2 -1 2 -6 10 6 5 2 -11 3 10 -7
-1 1 1 -1 2 -2 -5 1 1 -1 3 -5 0 2 -6 -6 -0 -5 -1 -8 -6 -11 12 14 5 7 4 -13 1 6 8 7 8 7 -2 4 6 -7 19 23 -6 -4 0 4 10 1 -7
-0 -2 1 3 2 2 -3 -1 3 1 -2 -1 -4 2 -2 -6 -3 -1 -10 -6 -1 -9 4 -0 75 3 3 -3 -8 -1 -7 -14 -9 -15 -6 -1 -3 4 3 36 2 -1 5 1 3 -7 -14
-1 0 2 2 3 2 1 -4 2 4 2 4 -5 -3 2 -5 -5 -2 -1 7 -1 6 5 -7 -1 6 2 33 30 16 -6 1 -3 2 5 1 -8 -4 8 -1 8 3 9 3 -7 -5 0
-3 -0 1 0 5 4 0 -3 2 0 -2 -7 1 -6 0 -3 -4 -4 -5 7 1 5 7 3 -10 1 17 -1 -3 20 11 1 2 7 13 -2 -8 1 -1 18 -2 -0 -3 5 2 1 8
-2 -1 -3 -0 3 4 1 -1 -1 1 -0 1 -2 1 -3 -0 -3 -5 -8 2 -3 1 -2 5 -3 -4 -3 1 -1 3 -4 -2 -1 1 2 3 -2 0 2 5 -0 -1 6 -5 -6 -3 2
-6 -3 -1 2 0 1 3 3 -4 -2 4 -8 -0 3 -2 -3 -3 -5 -7 -8 3 -1 -0 -5 4 9 1 2 1 -1 -3 -3 -2 -2 0 4 3 -5 1 -3 -1 -3 1 -0 2 2 3
-7 0 -1 -1 -3 -1 1 2 -0 -3 -3 1 1 0 1 1 -2 -5 -5 -9 -3 7 -2 1 -1 -1 1 -3 -4 -2 -2 -1 -1 -1 -2 -1 -0 5 1 0 -1 2 -4 -3 -6 -4 2
-2 -2 -2 -1 1 3 3 -1 0 -5 7 0 -1 5 2 2 -1 -2 -5 -4 -5 -2 0 3 -2 -2 -1 -2 -2 -3 -1 -0 1 0 1 1 -1 -2 -1 1 2 2 4 4 8 4 5
-1 -3 -1 -2 -1 -0 2 2 -1 -3 1 -5 -2 -2 -1 2 1 0 -4 -5 -3 -4 -1 -1 1 1 3 1 -1 -0 -0 -1 -2 -0 1 -1 -0 1 3 0 -3 -1 -1 -1 -2 -3 0
-6 -2 -2 -1 -5 -1 3 3 -5 -0 -4 -2 -1 -3 3 -2 1 -1 1 -2 -3 -2 -2 -2 -0 1 -0 0 1 1 -3 -1 -1 -2 -3 -0 -1 -1 -2 -1 -1 -0 -1 -0 1 0 0
-3 -1 -3 -2 -1 0 1 -3 1 -4 1 10 -2 -1 -2 5 1 1 0 -1 -4 -2 -2 -1 -3 -1 -0 -0 -1 0 2 -1 -2 -2 1 -0 1 1 1 0 0 -1 0 1 0 -0 0
-3 -3 -4 -4 -4 -0 -3 3 -4 1 1 -0 -3 -2 1 -1 1 2 -1 3 -1 -3 -3 0 1 -3 0 -2 -1 -0 -0 1 1 1 -1 -1 -0 -1 -0 -3 -2 2 -1 0 0 -2 -2
-3 -7 -4 -1 -3 -4 5 0 -5 -2 3 2 3 1 0 -2 -2 4 2 0 3 -1 -1 -2 -0 0 -0 0 -0 -1 -0 -1 -2 -0 1 0 -0 0 2 0 -1 2 -1 1 1 -1 0
-6 -6 -2 -6 -1 2 2 -2 -0 -10 2 -5 -4 2 -3 -1 -0 -1 5 2 1 1 -1 -3 -1 -1 0 -1 -1 -1 -1 -1 1 -0 -1 0 1 -0 -3 0 2 1 -1 2 -0 -1 2
-5 -8 -4 -3 -6 0 -5 3 -2 -6 -3 2 1 -1 -1 -1 0 -1 0 1 -2 1 2 -2 -0 -2 -1 -2 -2 -2 0 0 -1 -0 -0 -1 -1 -0 -0 -2 -5 6 -2 -2 -3 -0 1
-7 -7 -7 -2 -5 1 -1 -2 -4 3 -2 -4 -8 0 -2 0 -1 0 -3 0 2 2 3 2 -2 -0 -1 -1 -2 -0 0 0 -2 0 -0 -1 -1 0 -2 -0 -3 8 -1 -3 -3 7 0
-6 -10 -9 -5 -6 -2 -3 -0 -7 1 -1 -0 -9 4 -2 -1 -5 -2 -0 -1 -0 -0 3 -1 1 -1 -1 -1 1 -2 -1 -0 -0 -1 0 -1 -1 0 -1 1 -1 2 -1 5 0 0 -1
-8 -15 -11 -4 -4 -5 -2 1 -1 0 -5 -0 2 12 6 1 -1 4 1 1 5 0 4 1 4 2 -3 -0 0 -1 -1 -1 -2 1 -1 -1 -1 -0 -2 3 -2 1 1 -2 1 0 0
Height
5764 5753 5741 5727 5713 5699 5686 5674 5662 5652 5643 5633 5621 5607 5590 5573 5558 5548 5542 5538 5536 5534 5533 5531 5531 5533 5539 5551 5579 5587 5607 5619 5632 5644 5655 5665 5674 5681 5691 5703 5707 5717 5727 5730 5732 5742 5754
5761 5749 5736 5722 5709 5694 5682 5669 5657 5647 5638 5625 5610 5593 5574 5557 5544 5536 5532 5530 5529 5527 5527 5527 5527 5528 5533 5545 5553 5570 5589 5607 5624 5636 5647 5659 5669 5677 5684 5691 5699 5713 5716 5720 5723 5739 5749
5757 5745 5733 5719 5703 5691 5677 5664 5652 5643 5631 5618 5602 5584 5563 5545 5532 5528 5526 5525 5523 5521 5523 5524 5525 5528 5533 5539 5543 5559 5578 5597 5613 5628 5640 5652 5660 5667 5679 5685 5695 5700 5703 5715 5720 5736 5744
5754 5742 5729 5714 5700 5687 5674 5661 5649 5640 5628 5612 5597 5578 5556 5538 5529 5525 5523 5521 5518 5519 5520 5522 5523 5526 5529 5532 5540 5552 5568 5587 5607 5623 5635 5644 5654 5662 5671 5677 5687 5693 5700 5708 5718 5728 5736
5751 5740 5725 5711 5696 5683 5671 5659 5648 5637 5626 5611 5595 5575 5555 5538 5529 5525 5522 5519 5517 5518 5519 5520 5521 5523 5526 5529 5535 5547 5563 5581 5599 5616 5628 5637 5648 5659 5665 5674 5681 5685 5694 5704 5715 5724 5729
5749 5737 5724 5708 5694 5681 5669 5658 5648 5636 5625 5611 5595 5577 5558 5539 5530 5524 5521 5518 5516 5516 5516 5517 5519 5521 5524 5525 5531 5542 5560 5577 5597 5611 5623 5630 5643 5653 5660 5667 5674 5686 5695 5703 5712 5719 5725
5747 5735 5722 5707 5693 5681 5667 5656 5647 5637 5625 5613 5598 5582 5565 5547 5533 5524 5519 5517 5516 5516 5515 5515 5517 5518 5520 5522 5529 5544 5565 5581 5594 5607 5616 5631 5639 5652 5666 5674 5679 5684 5688 5696 5705 5710 5716
5745 5733 5720 5706 5692 5680 5666 5656 5648 5638 5628 5617 5603 5590 5575 5561 5545 5534 5524 5518 5516 5515 5514 5514 5515 5516 5519 5523 5531 5548 5567 5583 5596 5605 5615 5626 5643 5653 5660 5666 5670 5673 5681 5693 5696 5703 5713
5743 5731 5718 5704 5691 5679 5667 5656 5648 5639 5630 5621 5609 5598 5588 5576 5561 5549 5541 5532 5525 5523 5518 5517 5517 5521 5523 5529 5537 5554 5569 5584 5589 5601 5616 5629 5645 5651 5657 5662 5667 5673 5680 5688 5691 5702 5710
5740 5728 5715 5703 5690 5679 5667 5656 5649 5641 5632 5625 5615 5604 5596 5588 5578 5565 5559 5554 5546 5540 5534 5537 5533 5534 5539 5548 5554 5560 5571 5579 5591 5601 5617 5629 5641 5649 5655 5659 5664 5668 5677 5682 5687 5700 5704
5738 5726 5715 5703 5690 5678 5669 5659 5649 5642 5635 5627 5621 5611 5602 5595 5589 5580 5573 5565 5559 5555 5551 5553 5553 5553 5557 5562 5571 5574 5582 5591 5599 5609 5622 5632 5640 5646 5651 5657 5661 5666 5672 5678 5687 5693 5694
5736 5725 5714 5703 5691 5679 5669 5659 5649 5644 5636 5629 5624 5617 5608 5601 5597 5590 5582 5579 5575 5569 5563 5568 5566 5570 5570 5574 5581 5586 5591 5598 5606 5616 5625 5632 5638 5644 5648 5653 5658 5663 5669 5677 5683 5687 5691
5735 5724 5712 5701 5690 5679 5669 5662 5651 5644 5638 5632 5625 5622 5615 5608 5603 5597 5593 5588 5586 5579 5577 5577 5576 5581 5582 5588 5596 5601 5605 5607 5614 5619 5625 5630 5637 5643 5648 5653 5656 5660 5665 5673 5677 5681 5688
5733 5723 5711 5700 5689 5679 5671 5662 5654 5643 5638 5633 5627 5623 5620 5615 5609 5605 5601 5598 5595 5590 5587 5589 5589 5591 5594 5596 5601 5605 5607 5611 5617 5623 5627 5630 5635 5640 5646 5650 5657 5659 5664 5670 5674 5679 5686
5731 5722 5711 5698 5688 5679 5670 5662 5651 5646 5638 5634 5629 5624 5622 5620 5615 5611 5606 5604 5600 5599 5599 5598 5596 5596 5599 5602 5605 5607 5612 5617 5620 5623 5627 5628 5632 5639 5643 5648 5653 5656 5659 5666 5672 5676 5681
5728 5718 5709 5698 5686 5678 5670 5661 5653 5645 5637 5632 5629 5626 5622 5621 5619 5616 5614 5609 5608 5606 5605 5605 5606 5606 5607 5609 5612 5613 5616 5619 5621 5623 5626 5629 5632 5637 5641 5648 5651 5654 5659 5663 5667 5672 5677
5725 5716 5706 5696 5684 5676 5666 5658 5651 5643 5636 5631 5627 5625 5622 5620 5620 5619 5617 5615 5614 5611 5609 5611 5612 5613 5613 5614 5616 5617 5619 5621 5623 5625 5627 5631 5634 5637 5640 5645 5648 5652 5656 5661 5666 5670 5673
5720 5710 5702 5692 5683 5672 5662 5655 5647 5641 5634 5628 5625 5623 5622 5619 5620 5619 5618 5616 5616 5617 5616 5615 5614 5617 5616 5617 5618 5619 5621 5623 5624 5626 5629 5632 5636 5638 5641 5644 5647 5650 5655 5659 5662 5667 5671
5714 5706 5697 5688 5679 5668 5659 5652 5644 5639 5632 5626 5623 5621 5620 5619 5617 5618 5617 5617 5616 5616 5618 5618 5618 5618 5619 5620 5621 5622 5623 5624 5626 5629 5631 5633 5636 5638 5642 5646 5646 5650 5653 5657 5661 5664 5667
5709 5701 5693 5684 5675 5666 5655 5648 5641 5635 5629 5623 5620 5618 5618 5616 5616 5616 5616 5616 5616 5616 5616 5617 5618 5619 5619 5620 5621 5622 5624 5625 5626 5628 5631 5634 5636 5638 5642 5643 5646 5648 5651 5655 5658 5661 5664
5703 5695 5688 5679 5670 5663 5652 5643 5637 5630 5625 5622 5616 5615 5613 5613 5612 5613 5614 5615 5615 5616 5616 5616 5616 5617 5618 5619 5620 5621 5621 5622 5625 5626 5629 5631 5634 5637 5639 5641 5643 5646 5650 5653 5656 5658 5659
5697 5688 5682 5674 5664 5656 5647 5637 5629 5624 5619 5614 5611 5610 5608 5608 5608 5608 5610 5611 5612 5613 5614 5614 5615 5616 5616 5617 5617 5618 5620 5621 5622 5623 5624 5627 5630 5632 5635 5638 5640 5643 5646 5649 5651 5653 5655
5689 5682 5675 5668 5659 5649 5641 5631 5626 5620 5614 5610 5606 5602 5602 5601 5604 5605 5606 5607 5608 5609 5611 5612 5613 5613 5615 5616 5616 5617 5618 5619 5620 5622 5623 5625 5628 5630 5633 5634 5637 5641 5643 5645 5647 5649 5651
5683 5678 5670 5663 5654 5645 5636 5627 5619 5613 5608 5605 5602 5598 5596 5595 5597 5600 5601 5603 5604 5605 5607 5608 5610 5611 5613 5613 5614 5616 5616 5617 5619 5620 5621 5623 5625 5627 5630 5631 5634 5637 5639 5641 5643 5645 5649
5678 5672 5664 5656 5647 5637 5629 5620 5613 5608 5603 5598 5595 5594 5591 5590 5591 5594 5597 5599 5600 5602 5603 5604 5606 5608 5610 5610 5612 5613 5614 5616 5616 5618 5619 5620 5623 5625 5626 5629 5632 5634 5636 5638 5640 5643 5645
5669 5664 5657 5648 5640 5629 5620 5611 5607 5602 5596 5592 5591 5587 5586 5585 5587 5587 5590 5592 5594 5597 5599 5601 5603 5604 5606 5607 5608 5609 5611 5612 5614 5615 5616 5618 5620 5622 5624 5625 5627 5632 5632 5634 5637 5639 5641
5662 5657 5650 5640 5631 5621 5612 5604 5601 5595 5590 5587 5585 5582 5580 5579 5580 5582 5584 5586 5589 5592 5594 5596 5598 5600 5602 5603 5605 5606 5608 5609 5610 5612 5614 5615 5616 5618 5620 5622 5625 5628 5630 5632 5634 5640 5638
5655 5650 5644 5632 5621 5611 5603 5597 5594 5590 5585 5582 5579 5575 5573 5573 5573 5575 5577 5579 5581 5583 5586 5588 5592 5594 5596 5599 5600 5602 5604 5605 5606 5608 5610 5612 5613 5615 5617 5620 5623 5625 5627 5630 5632 5633 5634
5647 5643 5637 5624 5613 5603 5598 5591 5589 5585 5580 5576 5572 5569 5567 5566 5567 5568 5569 5571 5572 5573 5577 5579 5584 5587 5590 5593 5596 5597 5600 5601 5603 5605 5606 5609 5610 5612 5615 5617 5618 5621 5623 5625 5627 5629 5630